Location: Allison Elementary School
(34.0784°N, 117.7317°W)
Time: 14:41:46
(UTC+00:00)

SL-8 R/B - Visible Passes

Search period start: 18 February 2020 00:00
Search period end: 28 February 2020 00:00
Orbit: 656 x 668 km, 48.4° (Epoch: 18 February)

Date Brightness Start Highest point End Pass type
(mag) Time Alt. Az. Time Alt. Az. Time Alt. Az.
18 Feb 7.0 13:20:29 10° SE 13:21:09 10° SE 13:21:49 10° ESE visible
19 Feb 5.7 13:47:29 10° SSW 13:51:38 30° SE 13:55:48 10° ENE visible
20 Feb 6.6 12:38:59 10° SE 12:40:26 11° SE 12:41:54 10° ESE visible
21 Feb 5.4 13:06:42 10° SSW 13:10:56 32° SE 13:15:11 10° ENE visible
22 Feb 6.4 11:57:50 10° SSE 11:59:44 12° SE 12:01:40 10° ESE visible
22 Feb 3.8 13:36:52 10° SW 13:41:40 84° SE 13:46:30 10° NE visible
23 Feb 5.1 12:28:25 25° S 12:30:14 34° SE 12:34:34 10° ENE visible
24 Feb 6.6 11:20:42 11° ESE 11:20:42 11° ESE 11:21:19 10° E visible
24 Feb 3.6 12:58:43 31° SW 13:00:59 90° SSE 13:05:49 10° NE visible
25 Feb 5.3 11:50:50 31° E 11:50:50 31° E 11:53:57 10° ENE visible
25 Feb 4.3 13:28:50 18° W 13:32:02 40° NNW 13:36:35 10° NE visible
26 Feb 3.8 12:20:48 71° NE 12:20:48 71° NE 12:25:09 10° NE visible
27 Feb 6.6 11:12:39 14° ENE 11:12:39 14° ENE 11:13:19 10° ENE visible
27 Feb 4.3 12:50:38 36° NW 12:51:23 38° NNW 12:55:53 10° NE visible
